Taos, NM

10:00 AM MST on November 13, 2019 (GMT -0700)
Taos Municipal

Weather History for KSKX - October, 2019

Change the Weather History Date:

Sunday, October 20, 2019

  Actual Average Record
Temperature  
Mean Temperature 38 °F -  
Max Temperature 51 °F 59 °F 78 °F (2003)
Min Temperature 26 °F 27 °F 21 °F (2006)
Degree Days  
Heating Degree Days 26    
Moisture  
Dew Point 3 °F    
Average Humidity 21    
Maximum Humidity 35    
Minimum Humidity 9    
Precipitation  
Precipitation 0.00 in - - ()
Sea Level Pressure  
Sea Level Pressure 29.85 in    
Wind  
Wind Speed 14 mph ()    
Max Wind Speed 33 mph    
Max Gust Speed 45 mph    
Visibility 10.0 miles    
Events      
Averages and records for this station are not official NWS values.
T = Trace of Precipitation, MM = Missing Value Source: Averaged Metar Reports

Daily Weather History Graph

Daily Weather History Graph

Search for Another Location

Airport or City:

Astronomy

Oct. 20, 2019 Rise Set
Actual Time 7:14 AM MDT 6:20 PM MDT
Civil Twilight 6:48 AM MDT 6:46 PM MDT
Nautical Twilight 6:18 AM MDT 7:16 PM MDT
Astronomical Twilight 5:48 AM MDT 7:46 PM MDT
Moon 11:38 PM MDT (10/20) 1:37 PM MDT (10/20)
Length of Visible Light 11h 58m
Length of Day
11h 05m
Waning Gibbous, 58% of the Moon is Illuminated
Oct 20
Waning Gibbous
Oct 21
Last Quarter
Oct 27
New
Nov 4
First Quarter
Nov 12
Full

Hourly Weather History & Observations

Time (MDT) Temp. Windchill Dew Point Humidity Pressure Visibility Wind Dir Wind Speed Gust Speed Precip Events Conditions
12:56 AM 46.9 °F - 8.1 °F 21% 29.76 in 10.0 mi SSW 5.8 mph - N/A   Clear
1:56 AM 44.1 °F 37.1 °F 8.1 °F 23% 29.74 in 10.0 mi SW 15.0 mph - N/A   Clear
2:56 AM 44.1 °F 37.7 °F 8.1 °F 23% 29.75 in 10.0 mi SW 12.7 mph - N/A   Clear
3:56 AM 45.0 °F 39.7 °F 9.0 °F 23% 29.74 in 10.0 mi WSW 10.4 mph - N/A   Clear
4:56 AM 46.9 °F - 10.0 °F 22% 29.71 in 10.0 mi WSW 13.8 mph - N/A   Mostly Cloudy
5:56 AM 45.0 °F 39.7 °F 10.9 °F 25% 29.74 in 10.0 mi WSW 10.4 mph - N/A   Clear
6:56 AM 41.0 °F 36.4 °F 10.9 °F 29% 29.77 in 10.0 mi WSW 6.9 mph - N/A   Clear
7:56 AM 42.1 °F 35.7 °F 10.0 °F 27% 29.80 in 10.0 mi West 11.5 mph 19.6 mph N/A   Clear
8:56 AM 48.9 °F - 9.0 °F 20% 29.82 in 10.0 mi West 25.3 mph 32.2 mph N/A   Partly Cloudy
9:56 AM 48.9 °F - 16.0 °F 27% 29.84 in 10.0 mi West 26.5 mph 34.5 mph N/A   Overcast
10:56 AM 51.1 °F - 12.9 °F 22% 29.81 in 10.0 mi WNW 26.5 mph 32.2 mph N/A   Clear
11:56 AM 48.9 °F - -2.9 °F 12% 29.80 in 10.0 mi WNW 33.4 mph 44.9 mph N/A   Clear
12:56 PM 50.0 °F - -8.0 °F 9% 29.80 in 10.0 mi WNW 28.8 mph 43.7 mph N/A   Clear
1:56 PM 48.9 °F - -9.0 °F 9% 29.81 in 10.0 mi WNW 31.1 mph 44.9 mph N/A   Clear
2:56 PM 48.0 °F - -9.0 °F 9% 29.81 in 10.0 mi West 28.8 mph 39.1 mph N/A   Clear
3:56 PM 48.9 °F - -7.1 °F 10% 29.82 in 10.0 mi WNW 27.6 mph 36.8 mph N/A   Clear
4:56 PM 48.0 °F - -6.0 °F 10% 29.83 in 10.0 mi WNW 20.7 mph 33.4 mph N/A   Clear
5:56 PM 45.0 °F 36.9 °F -2.9 °F 14% 29.88 in 10.0 mi WNW 20.7 mph 29.9 mph N/A   Clear
6:56 PM 39.9 °F 31.4 °F -2.0 °F 17% 29.95 in 10.0 mi West 16.1 mph 24.2 mph N/A   Clear
7:56 PM 36.0 °F 28.5 °F -2.0 °F 20% 30.02 in 10.0 mi North 10.4 mph - N/A   Clear
8:56 PM 30.9 °F 22.8 °F 1.0 °F 28% 30.01 in 10.0 mi NNW 9.2 mph - N/A   Clear
9:56 PM 26.1 °F 16.2 °F -0.0 °F 32% 30.04 in 10.0 mi NNW 10.4 mph - N/A   Clear
10:56 PM 27.0 °F - 1.9 °F 34% 30.04 in 10.0 mi Calm Calm - N/A   Clear
11:56 PM 26.1 °F 17.6 °F 1.9 °F 35% 30.06 in 10.0 mi WSW 8.1 mph - N/A   Clear